OIHR

Arak Airport

Airport
ICAO code
OIHR
IATA Code
AJK
Summary
ICAO Region
MID
ICAO Territory
Location

Mobarak Abad, Markazi

Serving
Arak
Elevation
5453 ft
Coordinates
34° 8' 2" N , 49° 50' 34" E
KCC
Metar
OIHR 240400Z 06006KT 8000 NSC 26/05 Q1010

Airport serving Arak, Iran.

Climatology

Continental climate (Köppen climate classification Dsa).

Runways

Designator Length Width Surface Rops
8/26 2990 45 ASP No/No

Airport map

Aerial View

SKYbrary Partners:

Safety knowledge contributed by: